Home > Time Zones > World Clock > Weather > Oman > Seeb > Past weeks

Flag for Oman Weather past 2 weeks in Seeb, Oman

Now
102 °F

Clear.


Feels Like: 107 °F
Forecast: 91 / 97 °F
Wind: 15 mph from Southwest

Location: International Airport

Current Time: Jul 24, 2014 at 2:56:09 AM

Latest Report: Jul 24, 2014 at 1:50 AM


Visibility: 4 mi

Pressure: 29.36 "Hg

Humidity: 31%

Dew point: 66 °F

Location of SeebLocation

Historic Weather in Seeb — Graph

°F

Seeb temperature yesterday

Maximum temperature yesterday: 95 °F (at 11:50 PM)
Minimum temperature yesterday: 84 °F (at 4:50 AM)
Average temperature yesterday: 90 °F

Past Weeks' High & Low Weather Summary

 TemperatureHumidityPressure
High108 °F (Jul 16, 9:50 AM)100% (Jul 22, 4:50 AM)29.53 "Hg (Jul 22, 4:50 AM)
Low82 °F (Jul 15, 2:50 AM)22% (Jul 17, 8:50 AM)29.33 "Hg (Jul 17, 1:50 AM)
Average91 °F72%29.43 "Hg
* Reported Jul 9 1:50 AM — Jul 24 1:50 AM, Seeb, Weather by CustomWeather, © 2014

Note: Actual official high and low records may vary slightly from our data, if they occured in-between our weather recording intervals... More about our weather records

Advertising

Seeb weather history for previous 24 hours

 ConditionsComfort  
Time TempWeatherWind HumidityBarometerVisibility
1:50 AM
Jul 24
102 °FClear.15 mph31%29.36 "Hg4 mi
12:50 AM93 °FClear.3 mph47%29.39 "Hg4 mi
11:50 PM
Jul 23
95 °FClear.6 mph32%29.42 "Hg4 mi
10:50 PM93 °FClear.3 mph63%29.42 "Hg4 mi
9:50 PM91 °FClear.3 mph75%29.45 "Hg4 mi
8:50 PM90 °FClear.No wind79%29.42 "Hg4 mi
7:50 PM91 °FClear.5 mph75%29.42 "Hg4 mi
6:50 PM91 °FClear.3 mph75%29.42 "Hg4 mi
5:50 PM91 °FClear.7 mph75%29.39 "Hg4 mi
4:50 PM91 °FPassing clouds.9 mph75%29.39 "Hg4 mi
2:50 PM91 °FPassing clouds.13 mph75%29.42 "Hg3 mi
1:50 PM91 °FPassing clouds.10 mph75%29.42 "Hg3 mi
12:50 PM91 °FHaze.8 mph75%29.45 "Hg3 mi
8:50 AM88 °FClear.10 mph89%29.47 "Hg3 mi
7:50 AM88 °FClear.7 mph89%29.47 "Hg3 mi
6:50 AM86 °FHaze.2 mph94%29.45 "Hg3 mi
5:50 AM84 °FScattered clouds.2 mph94%29.45 "Hg3 mi
4:50 AM84 °FPassing clouds.2 mph94%29.42 "Hg4 mi
3:50 AM86 °FPassing clouds.5 mph94%29.42 "Hg4 mi
Weather by CustomWeather, © 2014

See weather overviewHow to use our weather pages